Time,TemperatureF,DewpointF,PressureIn,WindDirection,WindDirectionDegrees,WindSpeedMPH,WindSpeedGustMPH,Humidity,HourlyPrecipIn,Conditions,Clouds,dailyrainin,SoftwareType,DateUTC
2013-06-19 00:02:00,81.0,-99.9,29.91,SSW,211,11.0,16.0,-999,-99.99,,,-99.99,,2013-06-19 04:02:00,
2013-06-19 00:12:00,81.0,-99.9,29.91,SSW,213,13.0,20.0,-999,-99.99,,,-99.99,,2013-06-19 04:12:00,
2013-06-19 00:23:00,81.0,-99.9,29.91,SSW,213,13.0,20.0,-999,-99.99,,,-99.99,,2013-06-19 04:23:00,
2013-06-19 00:33:00,81.0,-99.9,29.91,SW,217,13.0,17.0,-999,-99.99,,,-99.99,,2013-06-19 04:33:00,
2013-06-19 00:43:00,81.0,-99.9,29.91,SW,219,10.0,19.0,-999,-99.99,,,-99.99,,2013-06-19 04:43:00,
2013-06-19 00:53:00,81.0,-99.9,29.91,SSW,207,12.0,19.0,-999,-99.99,,,-99.99,,2013-06-19 04:53:00,
2013-06-19 01:01:00,81.0,-99.9,29.91,SSW,212,11.0,17.0,-999,-99.99,,,-99.99,,2013-06-19 05:01:00,
2013-06-19 01:11:00,81.0,-99.9,29.90,SSW,211,12.0,18.0,-999,-99.99,,,-99.99,,2013-06-19 05:11:00,
2013-06-19 01:23:00,81.0,-99.9,29.90,SSW,210,12.0,17.0,-999,-99.99,,,-99.99,,2013-06-19 05:23:00,
2013-06-19 01:33:00,81.0,-99.9,29.90,SW,220,11.0,18.0,-999,-99.99,,,-99.99,,2013-06-19 05:33:00,
2013-06-19 01:43:00,81.0,-99.9,29.90,SW,220,12.0,17.0,-999,-99.99,,,-99.99,,2013-06-19 05:43:00,
2013-06-19 01:52:00,81.0,-99.9,29.90,SW,216,12.0,17.0,-999,-99.99,,,-99.99,,2013-06-19 05:52:00,
2013-06-19 02:02:00,81.0,-99.9,29.90,SW,222,10.0,16.0,-999,-99.99,,,-99.99,,2013-06-19 06:02:00,
2013-06-19 02:12:00,81.0,-99.9,29.89,SW,222,10.0,14.0,-999,-99.99,,,-99.99,,2013-06-19 06:12:00,
2013-06-19 02:22:00,81.0,-99.9,29.89,SW,219,8.0,14.0,-999,-99.99,,,-99.99,,2013-06-19 06:22:00,
2013-06-19 02:34:00,81.0,-99.9,29.90,SSW,211,9.0,12.0,-999,-99.99,,,-99.99,,2013-06-19 06:34:00,
2013-06-19 02:43:00,81.0,-99.9,29.90,SW,225,8.0,12.0,-999,-99.99,,,-99.99,,2013-06-19 06:43:00,
2013-06-19 02:52:00,81.0,-99.9,29.90,SW,224,7.0,12.0,-999,-99.99,,,-99.99,,2013-06-19 06:52:00,
2013-06-19 03:01:00,81.0,-99.9,29.90,SW,224,7.0,12.0,-999,-99.99,,,-99.99,,2013-06-19 07:01:00,
2013-06-19 03:12:00,81.0,-99.9,29.90,SW,222,7.0,13.0,-999,-99.99,,,-99.99,,2013-06-19 07:12:00,
2013-06-19 03:23:00,82.0,-99.9,29.89,SW,232,7.0,11.0,-999,-99.99,,,-99.99,,2013-06-19 07:23:00,
2013-06-19 03:33:00,82.0,-99.9,29.89,SW,231,7.0,11.0,-999,-99.99,,,-99.99,,2013-06-19 07:33:00,
2013-06-19 03:43:00,82.0,-99.9,29.89,SW,231,7.0,11.0,-999,-99.99,,,-99.99,,2013-06-19 07:43:00,
2013-06-19 03:54:00,82.0,-99.9,29.89,SW,231,7.0,11.0,-999,-99.99,,,-99.99,,2013-06-19 07:54:00,
2013-06-19 04:11:00,81.0,-99.9,29.89,SW,226,8.0,11.0,-999,-99.99,,,-99.99,,2013-06-19 08:11:00,
2013-06-19 04:22:00,81.0,-99.9,29.90,SW,230,8.0,11.0,-999,-99.99,,,-99.99,,2013-06-19 08:22:00,
2013-06-19 04:34:00,81.0,-99.9,29.90,SW,231,6.0,10.0,-999,-99.99,,,-99.99,,2013-06-19 08:34:00,
2013-06-19 04:43:00,80.0,-99.9,29.90,WSW,243,4.0,7.0,-999,-99.99,,,-99.99,,2013-06-19 08:43:00,
2013-06-19 04:54:00,80.0,-99.9,29.90,WSW,248,6.0,8.0,-999,-99.99,,,-99.99,,2013-06-19 08:54:00,
2013-06-19 05:02:00,80.0,-99.9,29.90,WSW,248,6.0,8.0,-999,-99.99,,,-99.99,,2013-06-19 09:02:00,
2013-06-19 05:12:00,80.0,-99.9,29.90,SW,233,7.0,10.0,-999,-99.99,,,-99.99,,2013-06-19 09:12:00,
2013-06-19 05:22:00,80.0,-99.9,29.90,SW,226,5.0,9.0,-999,-99.99,,,-99.99,,2013-06-19 09:22:00,
2013-06-19 05:34:00,80.0,-99.9,29.90,SW,226,5.0,9.0,-999,-99.99,,,-99.99,,2013-06-19 09:34:00,
2013-06-19 05:44:00,80.0,-99.9,29.91,SW,229,5.0,9.0,-999,-99.99,,,-99.99,,2013-06-19 09:44:00,
2013-06-19 05:53:00,80.0,-99.9,29.91,SW,227,7.0,11.0,-999,-99.99,,,-99.99,,2013-06-19 09:53:00,
2013-06-19 06:02:00,80.0,-99.9,29.91,SW,227,7.0,11.0,-999,-99.99,,,-99.99,,2013-06-19 10:02:00,
2013-06-19 06:12:00,79.0,-99.9,29.91,West,277,2.0,6.0,-999,-99.99,,,-99.99,,2013-06-19 10:12:00,
2013-06-19 06:22:00,79.0,-99.9,29.91,WNW,285,3.0,8.0,-999,-99.99,,,-99.99,,2013-06-19 10:22:00,
2013-06-19 06:33:00,79.0,-99.9,29.92,NW,313,4.0,7.0,-999,-99.99,,,-99.99,,2013-06-19 10:33:00,
2013-06-19 06:43:00,79.0,-99.9,29.91,WNW,289,4.0,6.0,-999,-99.99,,,-99.99,,2013-06-19 10:43:00,
2013-06-19 06:53:00,79.0,-99.9,29.91,NW,316,3.0,7.0,-999,-99.99,,,-99.99,,2013-06-19 10:53:00,
2013-06-19 07:02:00,79.0,-99.9,29.91,WNW,289,4.0,8.0,-999,-99.99,,,-99.99,,2013-06-19 11:02:00,
2013-06-19 07:12:00,80.0,-99.9,29.92,West,269,2.0,7.0,-999,-99.99,,,-99.99,,2013-06-19 11:12:00,
2013-06-19 07:22:00,79.0,-99.9,29.93,WNW,299,4.0,6.0,-999,-99.99,,,-99.99,,2013-06-19 11:22:00,
2013-06-19 07:33:00,79.0,-99.9,29.93,WNW,282,4.0,6.0,-999,-99.99,,,-99.99,,2013-06-19 11:33:00,
2013-06-19 07:43:00,79.0,-99.9,29.93,NW,324,4.0,7.0,-999,-99.99,,,-99.99,,2013-06-19 11:43:00,
2013-06-19 07:54:00,79.0,-99.9,29.94,WNW,291,3.0,6.0,-999,-99.99,,,-99.99,,2013-06-19 11:54:00,
2013-06-19 08:02:00,79.0,-99.9,29.95,SW,225,4.0,7.0,-999,-99.99,,,-99.99,,2013-06-19 12:02:00,
2013-06-19 08:12:00,79.0,-99.9,29.95,SW,230,4.0,9.0,-999,-99.99,,,-99.99,,2013-06-19 12:12:00,
2013-06-19 08:22:00,79.0,-99.9,29.95,WSW,245,4.0,9.0,-999,-99.99,,,-99.99,,2013-06-19 12:22:00,
2013-06-19 08:34:00,78.0,-99.9,29.96,SW,216,4.0,11.0,-999,-99.99,,,-99.99,,2013-06-19 12:34:00,
2013-06-19 08:44:00,78.0,-99.9,29.96,South,189,4.0,12.0,-999,-99.99,,,-99.99,,2013-06-19 12:44:00,
2013-06-19 08:53:00,78.0,-99.9,29.96,SSW,197,4.0,8.0,-999,-99.99,,,-99.99,,2013-06-19 12:53:00,
2013-06-19 09:02:00,78.0,-99.9,29.96,SSW,197,4.0,8.0,-999,-99.99,,,-99.99,,2013-06-19 13:02:00,
2013-06-19 09:12:00,78.0,-99.9,29.96,WNW,293,4.0,7.0,-999,-99.99,,,-99.99,,2013-06-19 13:12:00,
2013-06-19 09:22:00,79.0,-99.9,29.96,NW,304,2.0,5.0,-999,-99.99,,,-99.99,,2013-06-19 13:22:00,
2013-06-19 09:33:00,79.0,-99.9,29.96,WNW,292,3.0,8.0,-999,-99.99,,,-99.99,,2013-06-19 13:33:00,
2013-06-19 09:43:00,81.0,-99.9,29.96,NW,320,8.0,12.0,-999,-99.99,,,-99.99,,2013-06-19 13:43:00,
2013-06-19 09:54:00,81.0,-99.9,29.96,WNW,302,4.0,9.0,-999,-99.99,,,-99.99,,2013-06-19 13:54:00,
2013-06-19 10:02:00,81.0,-99.9,29.96,WNW,290,6.0,11.0,-999,-99.99,,,-99.99,,2013-06-19 14:02:00,
2013-06-19 10:12:00,81.0,-99.9,29.96,WNW,290,6.0,11.0,-999,-99.99,,,-99.99,,2013-06-19 14:12:00,
2013-06-19 10:23:00,82.0,-99.9,29.95,NNW,329,6.0,12.0,-999,-99.99,,,-99.99,,2013-06-19 14:23:00,
2013-06-19 10:34:00,82.0,-99.9,29.95,NNW,339,7.0,13.0,-999,-99.99,,,-99.99,,2013-06-19 14:34:00,
2013-06-19 10:44:00,82.0,-99.9,29.95,NW,315,5.0,11.0,-999,-99.99,,,-99.99,,2013-06-19 14:44:00,
2013-06-19 10:53:00,83.0,-99.9,29.96,NW,310,6.0,9.0,-999,-99.99,,,-99.99,,2013-06-19 14:53:00,
2013-06-19 11:02:00,83.0,-99.9,29.96,NNW,341,9.0,14.0,-999,-99.99,,,-99.99,,2013-06-19 15:02:00,
2013-06-19 11:11:00,83.0,-99.9,29.96,NW,307,5.0,10.0,-999,-99.99,,,-99.99,,2013-06-19 15:11:00,
2013-06-19 11:22:00,83.0,-99.9,29.96,NW,307,5.0,10.0,-999,-99.99,,,-99.99,,2013-06-19 15:22:00,
2013-06-19 11:33:00,83.0,-99.9,29.96,NNW,330,10.0,14.0,-999,-99.99,,,-99.99,,2013-06-19 15:33:00,
2013-06-19 11:43:00,84.0,-99.9,29.97,NW,319,6.0,12.0,-999,-99.99,,,-99.99,,2013-06-19 15:43:00,
2013-06-19 11:53:00,84.0,-99.9,29.97,NNW,332,9.0,13.0,-999,-99.99,,,-99.99,,2013-06-19 15:53:00,
2013-06-19 12:02:00,84.0,-99.9,29.97,NNW,332,9.0,13.0,-999,-99.99,,,-99.99,,2013-06-19 16:02:00,
2013-06-19 12:11:00,85.0,-99.9,29.97,WNW,286,3.0,12.0,-999,-99.99,,,-99.99,,2013-06-19 16:11:00,
2013-06-19 12:22:00,84.0,-99.9,29.97,WSW,257,3.0,10.0,-999,-99.99,,,-99.99,,2013-06-19 16:22:00,
2013-06-19 12:34:00,85.0,-99.9,29.97,NNW,339,7.0,12.0,-999,-99.99,,,-99.99,,2013-06-19 16:34:00,
2013-06-19 12:43:00,87.0,-99.9,29.97,NNW,332,5.0,14.0,-999,-99.99,,,-99.99,,2013-06-19 16:43:00,
2013-06-19 12:53:00,86.0,-99.9,29.97,NW,326,10.0,15.0,-999,-99.99,,,-99.99,,2013-06-19 16:53:00,
2013-06-19 13:02:00,87.0,-99.9,29.97,NNW,334,11.0,15.0,-999,-99.99,,,-99.99,,2013-06-19 17:02:00,
2013-06-19 13:12:00,87.0,-99.9,29.97,NNW,334,11.0,15.0,-999,-99.99,,,-99.99,,2013-06-19 17:12:00,
2013-06-19 13:22:00,87.0,-99.9,29.96,NNW,333,6.0,17.0,-999,-99.99,,,-99.99,,2013-06-19 17:22:00,
2013-06-19 13:34:00,88.0,-99.9,29.96,NNW,327,8.0,13.0,-999,-99.99,,,-99.99,,2013-06-19 17:34:00,
2013-06-19 13:43:00,87.0,-99.9,29.96,NNW,337,8.0,11.0,-999,-99.99,,,-99.99,,2013-06-19 17:43:00,
2013-06-19 13:53:00,88.0,-99.9,29.96,NNW,333,6.0,16.0,-999,-99.99,,,-99.99,,2013-06-19 17:53:00,
2013-06-19 14:02:00,88.0,-99.9,29.95,NW,319,7.0,14.0,-999,-99.99,,,-99.99,,2013-06-19 18:02:00,
2013-06-19 14:12:00,88.0,-99.9,29.95,NW,319,7.0,14.0,-999,-99.99,,,-99.99,,2013-06-19 18:12:00,
2013-06-19 14:24:00,88.0,-99.9,29.95,NW,319,7.0,14.0,-999,-99.99,,,-99.99,,2013-06-19 18:24:00,
2013-06-19 14:44:00,80.0,-99.9,29.94,South,170,13.0,18.0,-999,-99.99,,,-99.99,,2013-06-19 18:44:00,
2013-06-19 14:53:00,80.0,-99.9,29.95,South,169,11.0,19.0,-999,-99.99,,,-99.99,,2013-06-19 18:53:00,
2013-06-19 15:02:00,78.0,-99.9,29.94,South,170,12.0,21.0,-999,-99.99,,,-99.99,,2013-06-19 19:02:00,
2013-06-19 15:12:00,78.0,-99.9,29.95,SSE,166,13.0,16.0,-999,-99.99,,,-99.99,,2013-06-19 19:12:00,
2013-06-19 15:22:00,78.0,-99.9,29.94,SSE,160,13.0,17.0,-999,-99.99,,,-99.99,,2013-06-19 19:22:00,
2013-06-19 15:33:00,78.0,-99.9,29.95,South,185,7.0,19.0,-999,-99.99,,,-99.99,,2013-06-19 19:33:00,
2013-06-19 15:44:00,76.0,-99.9,29.96,SW,216,8.0,14.0,-999,-99.99,,,-99.99,,2013-06-19 19:44:00,
2013-06-19 15:53:00,74.0,-99.9,29.94,South,175,5.0,8.0,-999,-99.99,,,-99.99,,2013-06-19 19:53:00,
2013-06-19 16:02:00,75.0,-99.9,29.93,SSW,193,4.0,10.0,-999,-99.99,,,-99.99,,2013-06-19 20:02:00,
2013-06-19 16:12:00,75.0,-99.9,29.95,West,266,3.0,7.0,-999,-99.99,,,-99.99,,2013-06-19 20:12:00,
2013-06-19 16:22:00,76.0,-99.9,29.97,NNW,339,9.0,11.0,-999,-99.99,,,-99.99,,2013-06-19 20:22:00,
2013-06-19 16:33:00,75.0,-99.9,29.97,North,350,12.0,20.0,-999,-99.99,,,-99.99,,2013-06-19 20:33:00,
2013-06-19 16:43:00,76.0,-99.9,29.97,NNW,344,13.0,20.0,-999,-99.99,,,-99.99,,2013-06-19 20:43:00,
2013-06-19 16:52:00,75.0,-99.9,29.97,NNW,344,11.0,15.0,-999,-99.99,,,-99.99,,2013-06-19 20:52:00,
2013-06-19 17:02:00,75.0,-99.9,29.97,NNW,344,11.0,15.0,-999,-99.99,,,-99.99,,2013-06-19 21:02:00,
2013-06-19 17:12:00,73.0,-99.9,29.98,NNE,23,12.0,13.0,-999,-99.99,,,-99.99,,2013-06-19 21:12:00,
2013-06-19 17:22:00,73.0,-99.9,29.98,NE,54,10.0,15.0,-999,-99.99,,,-99.99,,2013-06-19 21:22:00,
2013-06-19 17:33:00,73.0,-99.9,29.98,NE,54,10.0,15.0,-999,-99.99,,,-99.99,,2013-06-19 21:33:00,
2013-06-19 17:44:00,72.0,-99.9,29.96,East,81,8.0,10.0,-999,-99.99,,,-99.99,,2013-06-19 21:44:00,
2013-06-19 17:52:00,72.0,-99.9,29.96,East,97,6.0,8.0,-999,-99.99,,,-99.99,,2013-06-19 21:52:00,
2013-06-19 18:02:00,72.0,-99.9,29.96,ESE,116,5.0,8.0,-999,-99.99,,,-99.99,,2013-06-19 22:02:00,
2013-06-19 18:12:00,72.0,-99.9,29.96,SSE,154,1.0,5.0,-999,-99.99,,,-99.99,,2013-06-19 22:12:00,
2013-06-19 18:22:00,73.0,-99.9,29.97,SSE,149,2.0,3.0,-999,-99.99,,,-99.99,,2013-06-19 22:22:00,
2013-06-19 18:34:00,73.0,-99.9,29.97,NNE,25,8.0,9.0,-999,-99.99,,,-99.99,,2013-06-19 22:34:00,
2013-06-19 18:43:00,73.0,-99.9,29.98,NNE,26,7.0,9.0,-999,-99.99,,,-99.99,,2013-06-19 22:43:00,
2013-06-19 18:53:00,73.0,-99.9,29.98,NNE,26,7.0,9.0,-999,-99.99,,,-99.99,,2013-06-19 22:53:00,
2013-06-19 19:02:00,73.0,-99.9,29.98,NNE,26,7.0,9.0,-999,-99.99,,,-99.99,,2013-06-19 23:02:00,
2013-06-19 19:12:00,74.0,-99.9,29.96,NE,40,6.0,8.0,-999,-99.99,,,-99.99,,2013-06-19 23:12:00,
2013-06-19 19:23:00,74.0,-99.9,29.95,NE,38,10.0,11.0,-999,-99.99,,,-99.99,,2013-06-19 23:23:00,
2013-06-19 19:34:00,74.0,-99.9,29.95,NE,38,10.0,11.0,-999,-99.99,,,-99.99,,2013-06-19 23:34:00,
2013-06-19 19:43:00,74.0,-99.9,29.95,NE,38,10.0,11.0,-999,-99.99,,,-99.99,,2013-06-19 23:43:00,
2013-06-19 20:02:00,74.0,-99.9,29.98,NE,38,6.0,10.0,-999,-99.99,,,-99.99,,2013-06-20 00:02:00,
2013-06-19 20:12:00,74.0,-99.9,29.98,NE,44,6.0,11.0,-999,-99.99,,,-99.99,,2013-06-20 00:12:00,
2013-06-19 20:22:00,74.0,-99.9,29.98,NE,44,6.0,11.0,-999,-99.99,,,-99.99,,2013-06-20 00:22:00,
2013-06-19 20:34:00,74.0,-99.9,30.00,NNE,33,6.0,7.0,-999,-99.99,,,-99.99,,2013-06-20 00:34:00,
2013-06-19 20:44:00,74.0,-99.9,30.01,NNE,32,4.0,6.0,-999,-99.99,,,-99.99,,2013-06-20 00:44:00,
2013-06-19 20:52:00,74.0,-99.9,30.01,NE,44,4.0,7.0,-999,-99.99,,,-99.99,,2013-06-20 00:52:00,
2013-06-19 21:02:00,74.0,-99.9,30.01,NE,44,4.0,7.0,-999,-99.99,,,-99.99,,2013-06-20 01:02:00,
2013-06-19 21:12:00,75.0,-99.9,30.01,NE,39,4.0,6.0,-999,-99.99,,,-99.99,,2013-06-20 01:12:00,
2013-06-19 21:22:00,75.0,-99.9,30.03,NNE,31,3.0,6.0,-999,-99.99,,,-99.99,,2013-06-20 01:22:00,
2013-06-19 21:34:00,75.0,-99.9,30.02,ENE,73,5.0,6.0,-999,-99.99,,,-99.99,,2013-06-20 01:34:00,
2013-06-19 21:44:00,74.0,-99.9,30.01,ENE,59,6.0,9.0,-999,-99.99,,,-99.99,,2013-06-20 01:44:00,
2013-06-19 21:53:00,74.0,-99.9,30.01,East,79,6.0,8.0,-999,-99.99,,,-99.99,,2013-06-20 01:53:00,
2013-06-19 22:02:00,74.0,-99.9,30.01,East,79,6.0,8.0,-999,-99.99,,,-99.99,,2013-06-20 02:02:00,
2013-06-19 22:12:00,75.0,-99.9,30.01,ESE,110,8.0,10.0,-999,-99.99,,,-99.99,,2013-06-20 02:12:00,
2013-06-19 22:24:00,75.0,-99.9,30.01,ESE,115,11.0,13.0,-999,-99.99,,,-99.99,,2013-06-20 02:24:00,
2013-06-19 22:34:00,76.0,-99.9,30.02,SE,124,11.0,14.0,-999,-99.99,,,-99.99,,2013-06-20 02:34:00,
2013-06-19 22:43:00,76.0,-99.9,30.02,SE,124,11.0,14.0,-999,-99.99,,,-99.99,,2013-06-20 02:43:00,
2013-06-19 22:53:00,76.0,-99.9,30.03,SE,137,13.0,15.0,-999,-99.99,,,-99.99,,2013-06-20 02:53:00,
2013-06-19 23:02:00,76.0,-99.9,30.03,SE,137,13.0,15.0,-999,-99.99,,,-99.99,,2013-06-20 03:02:00,
2013-06-19 23:12:00,76.0,-99.9,30.03,SE,140,12.0,15.0,-999,-99.99,,,-99.99,,2013-06-20 03:12:00,
2013-06-19 23:22:00,76.0,-99.9,30.03,SE,135,13.0,15.0,-999,-99.99,,,-99.99,,2013-06-20 03:22:00,
2013-06-19 23:33:00,76.0,-99.9,30.03,SE,140,10.0,12.0,-999,-99.99,,,-99.99,,2013-06-20 03:33:00,
2013-06-19 23:43:00,76.0,-99.9,30.04,SSE,148,7.0,10.0,-999,-99.99,,,-99.99,,2013-06-20 03:43:00,
2013-06-19 23:54:00,76.0,-99.9,30.03,SSE,158,6.0,10.0,-999,-99.99,,,-99.99,,2013-06-20 03:54:00,